Regional Weather Roundup
Issued by NWS Grand Forks, ND

Home | Current Version | Previous Version | Graphics & Text | Print | Product List | Glossary On
Versions: 1 2 3 4 5 6 7 8 9 10 11 12 13 14 15 16 17 18 19 20 21 22 23 24 25 26 27 28 29 30 31 32 33 34 35 36 37 38 39 40 41 42 43 44 45 46 47 48 49 50
000
ASUS43 KFGF 210010
RWRFGF
PRAIRIE TO PINES  WEATHER ROUNDUP
NATIONAL WEATHER SERVICE EASTERN NORTH DAKOTA/GRAND FORKS ND
700 PM CDT THU JUL 20 2017

 **SATELLITE DATA USED TO AUGMENT SKY COVER AT AUTOMATED STATIONS**
 *****  WEATHER ACROSS EASTERN NORTH DAKOTA  *****

CITY           SKY/WX    TMP DP  RH WIND       PRES   REMARKS
GRAND FORKS    PTSUNNY   83  64  52 CALM      29.93S
6HR MIN TEMP:  80; 6HR MAX TEMP:  86;

GRAND FRKS AFB FAIR      81  64  57 E3        29.94S
DEVILS LAKE    LGT RAIN  75  66  73 E13       29.92F
6HR MIN TEMP:  75; 6HR MAX TEMP:  87; 6HR PCP: TRACE;

FARGO          FAIR      86  66  51 S5        29.91F
WAHPETON ARPT  FAIR      82  63  51 S8        29.92F
$$

 ***** WEATHER ACROSS CENTRAL AND WESTERN NORTH DAKOTA  *****

CITY           SKY/WX    TMP DP  RH WIND       PRES   REMARKS
BISMARCK       FAIR      87  59  38 SE13      29.87R
6HR MIN TEMP:  87; 6HR MAX TEMP:  97;

MINOT          FAIR      83  64  52 E9        29.86S
6HR MIN TEMP:  79; 6HR MAX TEMP:  93; 6HR PCP:  0.03;

JAMESTOWN      FAIR      84  66  54 SE7       29.90F
6HR MIN TEMP:  83; 6HR MAX TEMP:  89;

MINOT AFB      FAIR      82  65  56 NE9       29.85F
GARRISON         N/A     80  61  52 SE10      29.86F
WILLISTON      FAIR      87  48  25 NE25G37   29.82F
6HR MIN TEMP:  74; 6HR MAX TEMP:  93; 6HR PCP:  0.09;

DICKINSON      FAIR      70  64  81 SE23G29   29.79S
6HR MIN TEMP:  70; 6HR MAX TEMP:  97; 6HR PCP:  0.32;

HETTINGER      TSTM      71  59  65 NW26G58   29.89R
6HR MIN TEMP:  73; 6HR MAX TEMP:  99;

$$

 *****  OTHER AIRPORT OBSERVATIONS IN OUR AREA  *****

CITY           SKY/WX    TMP DP  RH WIND       PRES   REMARKS
WALHALLA       NOT AVBL
GRAFTON AIRPOR FAIR      77  63  61 E7        29.96S
VALLEY CITY AR FAIR      84  66  54 S10       29.94S
CANDO          NOT AVBL
CAVALIER APRT  FAIR      75  63  64 E3        29.94F
GWINNER        CLEAR     84  66  54 S6G12     29.91F
SHEYENNE NWR     N/A     87  63  44 S7        29.95S
ROLLA            N/A     72  66  83 E8        29.94R
 ***** THE ABOVE OBSERVATIONS ARE NON NWS ARE NOT QUALITY
       CONTROLLED AND MAY MIS-REPORT RAIN FOR SNOW...
$$

  *****  WEATHER ACROSS NORTHERN MINNESOTA  *****

CITY           SKY/WX    TMP DP  RH WIND       PRES   REMARKS
FLAG ISLAND    FAIR      72  55  56 SE6       29.94F
WARROAD        FAIR      75  63  64 SW5       29.96F
ROSEAU         FAIR      77  63  61 SW5       29.96S
HALLOCK        FAIR      77  61  57 CALM      29.95S
THF RVR FALLS  FAIR      81  60  48 CALM      29.97
6HR MIN TEMP:  73; 6HR MAX TEMP:  81;

BAUDETTE       FAIR      75  54  47 NE3       29.96F
6HR MIN TEMP:  73; 6HR MAX TEMP:  77;

WASKISH        CLOUDY    79  61  53 SW6       29.96F
CROOKSTON      FAIR      81  63  54 CALM      29.95S
STEPHEN NDAWN    N/A     79  63  57 S2          N/A
GREENBUSH NDAW   N/A     77  63  61 NW2         N/A
$$
  *****  WEATHER ACROSS CENTRAL AND WEST MINNESOTA  *****

CITY           SKY/WX    TMP DP  RH WIND       PRES   REMARKS
FOSSTON        FAIR      82  61  47 W5        29.97S
BEMIDJI        FAIR      82  57  42 NW5       29.97S
PARK RAPIDS    FAIR      86  61  42 SW10      29.96F
6HR MIN TEMP:  84; 6HR MAX TEMP:  91;

ELBOW LAKE     FAIR      81  70  68 S5        29.96F
6HR MIN TEMP:  79; 6HR MAX TEMP:  85;

WADENA         FAIR      82  64  54 SW6       29.96F
DETROIT LAKES  FAIR      82  63  51 S6        29.97F
MOORHEAD       FAIR      84  66  54 SE5       29.92F
FERGUS FALLS   FAIR      82  68  61 S6        29.93F
MORRIS MN      FAIR      84  66  54 SE8       29.94F
STAPLES        FAIR      82  63  51 S7        29.97F
$$
  *****  WEATHER ELSEWHERE ACROSS MINNESOTA  *****

CITY           SKY/WX    TMP DP  RH WIND       PRES   REMARKS
DULUTH         FAIR      82  60  47 W7        29.96F
6HR MIN TEMP:  80; 6HR MAX TEMP:  84;

INTRNTL FALLS  FAIR      74  55  51 NW6       29.96F
6HR MIN TEMP:  74; 6HR MAX TEMP:  79;

ELY            FAIR      75  54  46 W5        29.97S
CLOQUET        FAIR      82  57  42 SW5       29.97S
WHEATON        FAIR      82  66  57 SE9       29.93F
BRAINERD       FAIR      82  65  56 SW12      29.97F
6HR MIN TEMP:  79; 6HR MAX TEMP:  84;

HIBBING        FAIR      79  59  50 W5        29.96F
6HR MIN TEMP:  78; 6HR MAX TEMP:  81;

ALEXANDRIA     FAIR      82  67  60 S7        29.98F
6HR MIN TEMP:  79; 6HR MAX TEMP:  84;

SAINT CLOUD    FAIR      84  65  52 SW6       29.98F
6HR MIN TEMP:  82; 6HR MAX TEMP:  87;

MINNEAPOLIS    FAIR      88  55  32 SW5       29.98F
6HR MIN TEMP:  81; 6HR MAX TEMP:  89;

$$

  *****  WEATHER ACROSS SOUTH DAKOTA  *****

CITY           SKY/WX    TMP DP  RH WIND       PRES   REMARKS
SIOUX FALLS    FAIR      86  71  60 SE12      29.95F HX  91
6HR MIN TEMP:  83; 6HR MAX TEMP:  88; 6HR PCP: TRACE;

BROOKINGS      FAIR      85  64  49 SE14      29.96F
WATERTOWN      FAIR      84  60  44 SE9       29.94F
6HR MIN TEMP:  80; 6HR MAX TEMP:  87;

HURON          FAIR      88  70  55 SE13      29.88F HX  93
6HR MIN TEMP:  84; 6HR MAX TEMP:  91;

SISSETON         N/A     85  70  60 SE12      29.90F
ABERDEEN       FAIR      86  67  52 SE12      29.88F
6HR MIN TEMP:  85; 6HR MAX TEMP:  89;

MITCHELL       FAIR      87  74  64 SE13      29.90F HX  95
PIERRE         NOT AVBL
MOBRIDGE       FAIR      91  64  40 SE22G30   29.80F HX  92
RAPID CITY     FAIR      96  57  27 S17G26    29.88F HX  95
6HR MIN TEMP:  92; 6HR MAX TEMP:  98;

$$

  *****  SOME WEATHER IN NEARBY STATES *****

CITY           SKY/WX    TMP DP  RH WIND       PRES   REMARKS
GLASGOW MT     FAIR      91  46  21 E25G35    29.77S
6HR MIN TEMP:  91; 6HR MAX TEMP:  97;

GREAT FALLS MT FAIR      91  18   7 W22G35    29.83S
6HR MIN TEMP:  85; 6HR MAX TEMP:  97;

CHEYENNE WY    FAIR      82  47  29 S9        30.16R
6HR MIN TEMP:  78; 6HR MAX TEMP:  92; 6HR PCP: TRACE;

SCOTTSBLUFF NE FAIR      89  58  34 E10       29.98F
6HR MIN TEMP:  84; 6HR MAX TEMP:  93;

OMAHA NE       PTSUNNY   95  74  50 SE9       29.90F HX 105
6HR MIN TEMP:  93; 6HR MAX TEMP:  98;

DES MOINES IA  PTSUNNY   95  73  48 W5        29.91S HX 104
6HR MIN TEMP:  92; 6HR MAX TEMP: 100;

DAVENPORT IA   FAIR      87  78  74 NE12      29.95S HX 100
6HR MIN TEMP:  86; 6HR MAX TEMP:  91;

CHICAGO IL     PTSUNNY   81  70  69 E7        29.95S
6HR MIN TEMP:  81; 6HR MAX TEMP:  88;

EAU CLAIRE WI  FAIR      83  67  58 NW7       29.98F
6HR MIN TEMP:  80; 6HR MAX TEMP:  86;

LA CROSSE WI   FAIR      86  73  65 N9        29.96F HX  93
6HR MIN TEMP:  84; 6HR MAX TEMP:  88;

$$

  *****  SOME NATIONAL WEATHER *****

CITY           SKY/WX    TMP DP  RH WIND       PRES   REMARKS
LA GUARDIA NY  MOCLDY    91  68  46 W10       29.87R HX  95
6HR MIN TEMP:  90; 6HR MAX TEMP:  98;

RALEIGH NC     MOCLDY    90  69  50 SE5       29.97R HX  94
6HR MIN TEMP:  90; 6HR MAX TEMP:  99;

ATLANTA GA     FAIR      88  69  53 NW8       30.03S HX  92
6HR MIN TEMP:  88; 6HR MAX TEMP:  93;

NEW ORLEANS LA FAIR      93  71  48 E8        29.99F HX 100
6HR MIN TEMP:  92; 6HR MAX TEMP:  96;

OKLAHOMA CITY  FAIR      97  63  32 S12       29.97F HX  98
6HR MIN TEMP:  96; 6HR MAX TEMP: 101;

ALBUQUERQUE NM PTSUNNY   84  50  30 E28G39    30.16S THUNDER
6HR MIN TEMP:  81; 6HR MAX TEMP:  89;

SALT LAKE CITY PTSUNNY   96  53  23 SE16      29.96F HX  93
6HR MIN TEMP:  89; 6HR MAX TEMP:  96;

LOS ANGELES CA FAIR      74  66  76 W15       29.93F
6HR MIN TEMP:  74; 6HR MAX TEMP:  80;

BOISE ID       FAIR


USA.gov is the U.S. government's official web portal to all federal, state and local government web resources and services.